Other Public Products
Issued by NWS Grand Forks, ND

Home | Current Version | Previous Version | Text Only | Print | Product List | Glossary On
Versions: 1 2 3 4 5 6 7 8 9 10 11 12 13 14 15 16 17 18 19 20 21 22 23 24 25 26 27 28 29 30 31 32 33 34 35 36 37 38 39 40 41 42 43 44 45 46 47 48 49 50
000
FPUS83 KFGF 230710
OPUFGF
PRAIRIE TO PINES WEATHER ROUNDUP
NATIONAL WEATHER SERVICE EASTERN NORTH DAKOTA/GRAND FORKS ND
200 AM CDT THU MAR 23 2017

 **SATELLITE DATA USED TO AUGMENT SKY COVER AT AUTOMATED STATIONS**
 *****  WEATHER ACROSS EASTERN NORTH DAKOTA  *****

CITY           SKY/WX    TMP DP  RH WIND       PRES   REMARKS
GRAND FORKS    FAIR      34  21  59 S17G25    29.98F WCI  23
GRAND FORKS AF FAIR      33  25  72 S18G25    29.97F WCI  21
GRAND CITY NWS NOT AVBL
BUXTON         NOT AVBL
DEVILS LAKE    FAIR      30  25  81 S14       29.90F WCI  19
FARGO          FAIR      36  24  62 S25G35    30.00F
WAHPETON ARPT  FAIR      34  23  64 SE16G24   30.03F WCI  23
$$

 *****  WEATHER ACROSS CENTRAL AND WESTERN NORTH DAKOTA  *****

CITY           SKY/WX    TMP DP  RH WIND       PRES   REMARKS
JAMESTOWN      FAIR      30  25  81 SE15      29.89F WCI  19
BISMARCK       FAIR      33  27  78 SE6       29.85S
MINOT          FAIR      34  29  82 S8        29.80S
MINOT AFB      FAIR      28  26  91 S8        29.79F WCI  20
GARRISON         N/A     31  27  85 SE7       29.82S WCI  24
WILLISTON      FAIR      30  28  92 CALM      29.78S
DICKINSON      FAIR      34  29  82 CALM      29.76F
HETTINGER      FAIR      31  28  89 CALM      29.77F
$$

 *****  OTHER OBSERVATIONS NORTHEAST NORTH DAKOTA  *****

CITY           SKY/WX    TMP DP  RH WIND       PRES   REMARKS
WALHALLA       NOT AVBL
LANGDON        NOT AVBL
CAVALIER       NOT AVBL
GRAFTON        FAIR      32  27  80 S16       30.00F WCI  21
CANDO          NOT AVBL
FORT TOTTEN      N/A     29  27  92 S16       29.95S WCI  17
ROLLA          FAIR      25  25 100 S12       29.86F WCI  14
RUGBY            N/A     28  27  93 S10       29.85S WCI  19
 ***** THE ABOVE OBSERVATIONS ARE NON NWS ARE NOT QUALITY
        CONTROLLED AND MAY MIS-REPORT RAIN FOR SNOW...
$$

 *****  OTHER OBSERVATIONS SOUTHEAST NORTH DAKOTA *****

CITY           SKY/WX    TMP DP  RH WIND       PRES   REMARKS
COOPERSTOWN    PTSUNNY   30  27  86 SE20      29.92F WCI  18
VALLEY CITY    FAIR      30  30 100 S15       29.94F WCI  19
OAKES          NOT AVBL
GWINNER        SUNNY     32  27  80 MISG      29.96F
SHEYENNE NWR     N/A     32  24  73 S15       29.95S WCI  22
BUFFALO        NOT AVBL
WYNDMERE       NOT AVBL
 ***** THE ABOVE OBSERVATIONS ARE NON NWS ARE NOT QUALITY
       CONTROLLED AND MAY MIS-REPORT RAIN FOR SNOW...
$$

  *****  WEATHER ACROSS NORTHERN MINNESOTA  *****

CITY           SKY/WX    TMP DP  RH WIND       PRES   REMARKS
FLAG ISLAND    CLOUDY    28  21  74 SE18      30.05F WCI  16
WARROAD        CLOUDY    32  21  64 SE12G18   30.05F WCI  23
ROSEAU         CLOUDY    34  21  60 SE14      30.03F WCI  24
HALLOCK        CLOUDY    34  27  75 S17       29.99F WCI  23
THF RVR FALLS    N/A    N/A N/A N/A MISG        N/A
HALSTAD          N/A     35  25  65 S23         N/A  WCI  23
FOSSTON        MOCLDY    34  19  55 S17G23    30.03F WCI  23
BAUDETTE       CLOUDY    32  18  56 SE13      30.07F WCI  22
WASKISH        CLOUDY    34  19  55 SE8G17    30.09F
CROOKSTON      FAIR      34  25  69 S16G22    30.01F WCI  23
$$
  *****  WEATHER ACROSS CENTRAL AND WEST MINNESOTA  *****

CITY           SKY/WX    TMP DP  RH WIND       PRES   REMARKS
BEMIDJI        CLOUDY    32  18  56 S15G22    30.08F WCI  22
PARK RAPIDS    CLOUDY    34  17  50 S20       30.09F WCI  23
WADENA         CLOUDY    34  21  60 S18       30.09F WCI  23
DETROIT LAKES  CLOUDY    34  23  64 SE18G24   30.05F WCI  23
MOORHEAD       FAIR      36  23  60 S22G29    30.02F
FERGUS FALLS   CLOUDY    36  23  60 S23G30    30.09
ELBOW LAKE     CLOUDY    35  23  61 E23G31    30.06F WCI  23
MORRIS MN      CLOUDY    36  25  64 SE22G29   30.06F
STAPLES        CLOUDY    34  18  51 S13G18    30.13F WCI  25
WHEATON        FAIR      34  25  69 SE17G23   30.06F WCI  23
$$
  *****  WEATHER ELSEWHERE ACROSS MINNESOTA  *****

CITY           SKY/WX    TMP DP  RH WIND       PRES   REMARKS
DULUTH         FLURRIES  30  21  69 SE7       30.24S WCI  23
INTRNTL FALLS  CLOUDY    29  22  75 SE10      30.15F WCI  20
ELY            FLURRIES  27  18  69 SE8       30.23F WCI  18
CLOQUET        CLOUDY    30  16  55 SE5       30.23F
BRAINERD       CLOUDY    34  15  46 S10G18    30.18F
HIBBING        CLOUDY    28  16  60 S7        30.21S WCI  21
ALEXANDRIA     CLOUDY    35  21  56 SE18      30.12F WCI  24
SAINT CLOUD    CLOUDY    35  20  54 SE12      30.19F
MINNEAPOLIS    CLOUDY    36  18  48 SE9       30.25F
$$

  *****  WEATHER ACROSS SOUTH DAKOTA  *****

CITY           SKY/WX    TMP DP  RH WIND       PRES   REMARKS
SIOUX FALLS    CLOUDY    40  26  57 S15G25    30.06F
BROOKINGS      CLOUDY    37  26  64 S18G26    30.02F
WATERTOWN      FAIR      36  25  64 S18G26    29.99S
HURON          FAIR      39  29  67 SE14G25   29.95F
SISSETON         N/A     34  27  75 S16       30.00F WCI  24
ABERDEEN       FAIR      36  26  67 S23G31    29.92F
MITCHELL       CLOUDY    42  29  59 S20G29    29.98F
PIERRE         FAIR      44  30  57 SE13      29.83F
MOBRIDGE       FAIR      41  28  60 SE15      29.77F
RAPID CITY     FAIR      48  38  68 S7        29.72F
$$

  *****  SOME WEATHER IN NEARBY STATES *****

CITY           SKY/WX    TMP DP  RH WIND       PRES   REMARKS
GLASGOW MT     FAIR      43  35  73 E9        29.75R
GREAT FALLS MT FAIR      32  24  72 SW8       29.80S WCI  25
CHEYENNE WY    FAIR      48  37  65 S5        29.80F
SCOTTSBLUFF NE FAIR      48  36  63 E15       29.77F
OMAHA NE       CLOUDY    45  23  42 SE18      30.12F
DES MOINES IA  CLOUDY    43  16  33 SE15      30.22F
DAVENPORT IA   FAIR      33  20  58 SE14      30.36F WCI  23
CHICAGO IL     FAIR      32  23  69 E5        30.45S
EAU CLAIRE WI  CLOUDY    34  14  43 SE12      30.30F
LA CROSSE WI   CLOUDY    38  19  46 SE14      30.33F
$$

  *****  SOME NATIONAL WEATHER *****

CITY           SKY/WX    TMP DP  RH WIND       PRES   REMARKS
LA GUARDIA NY  FAIR      26   6  42 NW10      30.48R WCI  16
RALEIGH NC     FAIR      39  15  37 E9        30.47R
ATLANTA GA     FAIR      54  37  52 E12       30.30R
NEW ORLEANS LA FAIR      64  62  93 W3        30.14F
OKLAHOMA CITY  FAIR      61  56  83 SE18      30.01F
ALBUQUERQUE NM FAIR      63  16  16 S12       29.91F
SALT LAKE CITY RAIN      48  45  89 NW14      29.72F FOG
LOS ANGELES CA FAIR      57  49  74 NW6       29.99S
BOISE ID       FAIR      46  39  76 W12       29.91R
SEATTLE WA     FAIR      44  38  79 S13       30.08R
$$

*** WEATHER ACROSS MANITOBA...SASKATCHEWAN AND ONTARIO ***
                ***ONTARIO***

CITY           SKY/WX    TMP DP  RH WIND       PRES   REMARKS
GERALDTON      PTCLDY     1  -6  71 S2        30.32F
THUNDER BAY    MOCLDY    23  19  86 NE2       30.34F
SIOUX LOOKOUT  FLURRIES  28  12  50 S7        30.15F WCI  21
TORONTO        CLEAR     19   9  63 NW6       30.53S WCI  11
BIG TROUT LK   MOCLDY    19   0  42 S8        30.12F WCI   9
PICKLE LAKE    NOT AVBL
DRYDEN         FLURRIES  28  21  74 S12G20    30.12F WCI  18
KENORA         NOT AVBL
$$
                *** MANITOBA***

CITY           SKY/WX    TMP DP  RH WIND       PRES   REMARKS
BRANDON        MOCLDY    27  23  86 SE7       29.82F WCI  19
DAUPHIN        CLEAR     32  27  80 SW9       29.75F WCI  24
ISLAND LAKE    LGT SNOW  25  23  93 SE12      29.95  WCI  14
PILOT MOUND      N/A     25  23  93 S13         N/A  WCI  13
THE PAS        FLURRIES  23  21  93 SE21      29.62F WCI   8
THOMPSON       LGT SNOW  23  21  93 SE5       29.79F WCI  17
WINNIPEG       CLOUDY    32  23  69 S22G29    29.96F WCI  19
LYNN LAKE      LGT SNOW  18  18 100 E6        29.71F WCI   9
CHURCHILL      MOCLDY     7   0  72 S9        29.94F WCI  -7
GILLAM         CLEAR     21   0  39 SE5       29.91F WCI  15
$$
                ***SASKATCHEWAN***

CITY           SKY/WX    TMP DP  RH WIND       PRES   REMARKS
ESTEVAN        PTCLDY    30  30 100 SE8       29.74F WCI  23
KINDERSLEY     CLOUDY    30  28  93 W9        29.73R WCI  22
LLOYDMINSTER   FOG       21  21 100 W10       29.70R VSB 3/8 WCI  10
PRINCE ALBERT  FLURRIES  25  23  93 W13       29.63R WCI  13
REGINA         CLEAR     28  28 100 S3        29.69R
YORKTON        CLEAR     30  27  86 S15G21    29.66S WC



USA.gov is the U.S. government's official web portal to all federal, state and local government web resources and services.